sat.trackr.live / text

‹ back to catalog

UNKNOWN

NORAD 85027

UNKNOWN UNKNOWN UNKNOWN

§ Identity

Operator
Country
Launch date
Launch site
Launch vehicle
Mass (kg)
RCS (m²)

External: N2YO · Heavens-Above

§ Orbital elements

Epoch: 2026-09-17T01:52:53.099040Z

Period
104.78 min
Inclination
66.0410°
Eccentricity
0.0169888
Mean motion
13.74351163 rev/d
Perigee alt
858.9 km
Apogee alt
1,109.1 km
Semi-major
7,362.1 km
B*
1.9181e-4
RAAN
139.8940°
Arg perigee
37.4162°
Mean anomaly
323.8588°
Rev number
64,286

§ Raw data

UNKNOWN1 85027U          26260.07839235  .00000122  00000+0  19181-3 0  99922 85027  66.0410 139.8940 0169888  37.4162 323.8588 13.74351163642865

JSON: /api/v1/satellites/85027 · /tle

For live sub-satellite position, see the globe view (requires WebGL).

§ Visibility from observer

Set your observer location to see the next 7 days of passes ≥ 10°. The values pass through the URL so the page stays shareable.

No JS? Fill the form by hand. The geolocation button needs JavaScript.